Terminal Aerodrome Forecast
Issued by NWS Charleston, WV

Current Version | Previous Version | Graphics & Text | Print | Product List | Glossary On
Versions: 1 2 3 4 5 6 7 8 9 10 11 12 13 14 15 16 17 18 19 20 21 22 23 24 25
000
FTUS41 KRLX 242300
TAFHTS
TAF
KHTS 242330Z 2500/2524 25008KT P6SM BKN025
     FM250600 22004KT P6SM BKN015
     FM251500 17006KT P6SM SCT015 OVC040
     FM251700 17006KT P6SM OVC070=

USA.gov is the U.S. government's official web portal to all federal, state and local government web resources and services.